Skip Page Navigation
NASA JPL Caltech
NASA Logo - Jet Propulsion Laboratory + View the NASA Portal
+ Center for Near-Earth Object Studies
JPL Home Earth Solar System Stars & Galaxies Technology
JPL Solar System Dynamics
BODIES ORBITS EPHEMERIDES TOOLS PHYSICAL DATA DISCOVERY FAQ SITE MAP
JPL Small-Body Database Browser
Search: [ help ]  
58033 (2002 VB88)
Classification: Main-belt Asteroid          SPK-ID: 2058033
Ephemeris | Orbit Diagram | Orbital Elements | Mission Design | Physical Parameters | Discovery Circumstances | Close-Approach Data ]

[ show orbit diagram ]
Orbital Elements at Epoch 2459000.5 (2020-May-31.0) TDB
Reference: JPL 18 (heliocentric ecliptic J2000)
 Element Value Uncertainty (1-sigma)   Units 
e .08371480452249597 3.8369e-08  
a 2.713335096467976 1.7267e-08 au
q 2.486188779263132 1.0591e-07 au
i 11.31110238597141 4.5579e-06 deg
node 264.8560701798879 2.4967e-05 deg
peri 169.1689929905463 4.1775e-05 deg
M 320.3104527135696 3.4482e-05 deg
tp 2459180.481231823707
(2020-Nov-26.98123182)
0.0001571 TDB
period 1632.501449032321
4.47
1.5583e-05
4.266e-08
d
yr
n .2205204780757733 2.105e-09 deg/d
Q 2.940481413672821 1.8713e-08 au
  Orbit Determination Parameters
   # obs. used (total)      959  
   data-arc span      7645 days (20.93 yr)  
   first obs. used      1998-11-23  
   last obs. used      2019-10-29  
   planetary ephem.      DE431  
   SB-pert. ephem.      SB431-N16  
   condition code      0  
   norm. resid. RMS      .52187  
   source      ORB  
   producer      Otto Matic  
   solution date      2019-Nov-07 07:17:58  

Additional Information
 Earth MOID = 1.50234 au 
 Jupiter MOID = 2.2966 au 
 T_jup = 3.329 
[ show covariance matrix ]

Ephemeris | Orbit Diagram | Orbital Elements | Mission Design | Physical Parameters | Discovery Circumstances | Close-Approach Data ]

Physical Parameter Table
Parameter Symbol Value Units Sigma Reference Notes
absolute magnitude H 14.5   n/a MPO359139  
diameter diameter 3.760 km 0.775 urn:nasa:pds:neowise_diameters_albedos::2.0[mainbelt] (http://adsabs.harvard.edu/abs/2011ApJ...741...68M)  
geometric albedo albedo 0.217   0.111 urn:nasa:pds:neowise_diameters_albedos::2.0[mainbelt] (http://adsabs.harvard.edu/abs/2011ApJ...741...68M)  

58033 (2002 VB88)          Discovered 2002-Nov-08 by LINEAR at Socorro
Reference: 20030318/Numbers.arcLast Updated: 2004-04-19

[ show close-approach data ]
Alternate Designations
 2002 VB88 = 2000 JE47 
Ephemeris | Orbit Diagram | Orbital Elements | Mission Design | Physical Parameters | Discovery Circumstances | Close-Approach Data ]
ABOUT SSD CREDITS/AWARDS PRIVACY/COPYRIGHT GLOSSARY LINKS
FirstGov 2020-Oct-29 18:01 UT
(server date/time)  
NASA Home Page
Site Manager:   Ryan S. Park
Webmaster  Alan B. Chamberlin